Location: Bakov nad Jizerou
(50.4784°N, 14.9394°E)
Time: 16:57:44
(UTC+00:00)

Cosmos 2322 - Pass Details

Date: 24 October 2021
Orbit: 841 x 854 km, 71.0° (Epoch: 04 December)

Event Time Altitude Azimuth Distance (km) Brightness Sun altitude
Rises 17:03:03 0° 150° (SSE) 3,411 6.6 -12.2°
Reaches altitude 10° 17:06:42 10° 126° (SE) 2,482 5.7 -12.8°
Enters shadow 17:07:18 11° 121° (ESE) 2,380 5.6 -12.9°
